Time,TemperatureF,DewpointF,PressureIn,WindDirection,WindDirectionDegrees,WindSpeedMPH,WindSpeedGustMPH,Humidity,HourlyPrecipIn,Conditions,Clouds,dailyrainin,SoftwareType,DateUTC
2013-02-05 00:04:00,-4.2,-11.5,29.94,WNW,294,0.0,0.0,70,0.00,SKC,OVC,0.00,WeatherDisplay:10.37,2013-02-05 05:04:00,
2013-02-05 00:09:00,-4.4,-11.7,29.94,WNW,294,0.0,0.0,70,0.00,SKC,OVC,0.00,WeatherDisplay:10.37,2013-02-05 05:09:00,
2013-02-05 00:14:00,-4.6,-11.9,29.94,WNW,294,0.0,0.0,70,0.00,SKC,OVC,0.00,WeatherDisplay:10.37,2013-02-05 05:14:00,
2013-02-05 00:19:00,-4.7,-11.7,29.94,WNW,294,0.0,0.0,71,0.00,SKC,OVC,0.00,WeatherDisplay:10.37,2013-02-05 05:19:00,
2013-02-05 00:29:00,-5.3,-12.0,29.94,NW,307,0.0,1.0,72,0.00,SKC,OVC,0.00,WeatherDisplay:10.37,2013-02-05 05:29:00,
2013-02-05 00:34:00,-5.5,-12.2,29.94,NW,307,0.0,0.0,72,0.00,SKC,OVC,0.00,WeatherDisplay:10.37,2013-02-05 05:34:00,
2013-02-05 00:39:00,-5.8,-12.5,29.94,NW,307,0.0,0.0,72,0.00,SKC,OVC,0.00,WeatherDisplay:10.37,2013-02-05 05:39:00,
2013-02-05 00:44:00,-6.0,-12.4,29.95,NW,307,0.0,1.0,73,0.00,SKC,OVC,0.00,WeatherDisplay:10.37,2013-02-05 05:44:00,
2013-02-05 00:54:00,-6.4,-12.5,29.95,NW,310,0.0,1.0,74,0.00,SKC,OVC,0.00,WeatherDisplay:10.37,2013-02-05 05:54:00,
2013-02-05 00:59:00,-6.4,-12.3,29.95,NW,313,0.0,1.0,75,0.00,SKC,OVC,0.00,WeatherDisplay:10.37,2013-02-05 05:59:00,
2013-02-05 01:04:00,-6.4,-12.3,29.95,NNW,331,0.0,2.0,75,0.00,SKC,OVC,0.00,WeatherDisplay:10.37,2013-02-05 06:04:00,
2013-02-05 01:09:00,-6.5,-12.1,29.95,NNW,343,0.0,2.0,76,0.00,SKC,OVC,0.00,WeatherDisplay:10.37,2013-02-05 06:09:00,
2013-02-05 01:14:00,-6.6,-12.2,29.95,North,350,0.0,3.0,76,0.00,SKC,OVC,0.00,WeatherDisplay:10.37,2013-02-05 06:14:00,
2013-02-05 01:19:00,-6.6,-12.2,29.95,NNW,347,1.0,3.0,76,0.00,SKC,OVC,0.00,WeatherDisplay:10.37,2013-02-05 06:19:00,
2013-02-05 01:24:00,-6.4,-12.0,29.96,NNW,330,0.0,1.0,76,0.00,SKC,OVC,0.00,WeatherDisplay:10.37,2013-02-05 06:24:00,
2013-02-05 01:29:00,-6.3,-12.2,29.96,NW,311,0.0,1.0,75,0.00,SKC,OVC,0.00,WeatherDisplay:10.37,2013-02-05 06:29:00,
2013-02-05 01:34:00,-6.3,-12.2,29.96,WNW,288,0.0,1.0,75,0.00,SKC,OVC,0.00,WeatherDisplay:10.37,2013-02-05 06:34:00,
2013-02-05 01:39:00,-6.3,-12.4,29.96,West,272,0.0,0.0,74,0.00,SKC,OVC,0.00,WeatherDisplay:10.37,2013-02-05 06:39:00,
2013-02-05 01:44:00,-6.3,-12.4,29.96,West,272,0.0,0.0,74,0.00,SKC,OVC,0.00,WeatherDisplay:10.37,2013-02-05 06:44:00,
2013-02-05 01:49:00,-6.4,-12.5,29.96,West,272,0.0,1.0,74,0.00,SKC,OVC,0.00,WeatherDisplay:10.37,2013-02-05 06:49:00,
2013-02-05 01:54:00,-6.6,-12.7,29.96,West,272,0.0,0.0,74,0.00,SKC,OVC,0.00,WeatherDisplay:10.37,2013-02-05 06:54:00,
2013-02-05 01:59:00,-6.8,-12.9,29.96,West,272,0.0,0.0,74,0.00,SKC,OVC,0.00,WeatherDisplay:10.37,2013-02-05 06:59:00,
2013-02-05 02:04:00,-7.0,-13.1,29.97,West,272,0.0,0.0,74,0.00,SKC,OVC,0.00,WeatherDisplay:10.37,2013-02-05 07:04:00,
2013-02-05 02:09:00,-7.2,-13.3,29.97,West,272,0.0,0.0,74,0.00,SKC,OVC,0.00,WeatherDisplay:10.37,2013-02-05 07:09:00,
2013-02-05 02:14:00,-7.5,-13.6,29.97,West,272,0.0,0.0,74,0.00,SKC,OVC,0.00,WeatherDisplay:10.37,2013-02-05 07:14:00,
2013-02-05 02:19:00,-7.8,-13.6,29.97,West,272,0.0,0.0,75,0.00,SKC,OVC,0.00,WeatherDisplay:10.37,2013-02-05 07:19:00,
2013-02-05 02:24:00,-8.0,-13.8,29.97,West,272,0.0,0.0,75,0.00,SKC,OVC,0.00,WeatherDisplay:10.37,2013-02-05 07:24:00,
2013-02-05 02:29:00,-8.2,-14.0,29.97,West,272,0.0,0.0,75,0.00,SKC,OVC,0.00,WeatherDisplay:10.37,2013-02-05 07:29:00,
2013-02-05 02:34:00,-8.5,-14.3,29.97,West,272,0.0,0.0,75,0.00,SKC,OVC,0.00,WeatherDisplay:10.37,2013-02-05 07:34:00,
2013-02-05 02:39:00,-8.7,-14.5,29.97,West,272,0.0,0.0,75,0.00,SKC,OVC,0.00,WeatherDisplay:10.37,2013-02-05 07:39:00,
2013-02-05 02:44:00,-9.0,-14.5,29.97,West,272,0.0,0.0,76,0.00,SKC,OVC,0.00,WeatherDisplay:10.37,2013-02-05 07:44:00,
2013-02-05 02:49:00,-9.2,-14.7,29.98,West,272,0.0,0.0,76,0.00,SKC,OVC,0.00,WeatherDisplay:10.37,2013-02-05 07:49:00,
2013-02-05 02:54:00,-9.5,-15.0,29.97,West,272,0.0,0.0,76,0.00,SKC,OVC,0.00,WeatherDisplay:10.37,2013-02-05 07:54:00,
2013-02-05 02:59:00,-9.7,-15.2,29.98,West,272,0.0,0.0,76,0.00,SKC,OVC,0.00,WeatherDisplay:10.37,2013-02-05 07:59:00,
2013-02-05 03:04:00,-9.8,-15.1,29.98,West,272,0.0,0.0,77,0.00,SKC,OVC,0.00,WeatherDisplay:10.37,2013-02-05 08:04:00,
2013-02-05 03:09:00,-10.0,-15.2,29.98,West,272,0.0,0.0,77,0.00,SKC,OVC,0.00,WeatherDisplay:10.37,2013-02-05 08:09:00,
2013-02-05 03:14:00,-10.2,-15.2,29.98,West,272,0.0,0.0,78,0.00,SKC,OVC,0.00,WeatherDisplay:10.37,2013-02-05 08:14:00,
2013-02-05 03:19:00,-10.3,-15.3,29.98,West,272,0.0,0.0,78,0.00,SKC,OVC,0.00,WeatherDisplay:10.37,2013-02-05 08:19:00,
2013-02-05 03:24:00,-10.5,-15.5,29.98,West,272,0.0,0.0,78,0.00,SKC,OVC,0.00,WeatherDisplay:10.37,2013-02-05 08:24:00,
2013-02-05 03:29:00,-10.7,-15.7,29.98,West,272,0.0,0.0,78,0.00,SKC,OVC,0.00,WeatherDisplay:10.37,2013-02-05 08:29:00,
2013-02-05 03:34:00,-10.8,-15.8,29.98,West,272,0.0,0.0,78,0.00,SKC,OVC,0.00,WeatherDisplay:10.37,2013-02-05 08:34:00,
2013-02-05 03:39:00,-11.0,-15.7,29.98,West,272,0.0,0.0,79,0.00,SKC,OVC,0.00,WeatherDisplay:10.37,2013-02-05 08:39:00,
2013-02-05 03:44:00,-11.0,-15.7,29.98,West,272,0.0,0.0,79,0.00,SKC,OVC,0.00,WeatherDisplay:10.37,2013-02-05 08:44:00,
2013-02-05 03:49:00,-11.2,-15.9,29.98,West,272,0.0,0.0,79,0.00,SKC,OVC,0.00,WeatherDisplay:10.37,2013-02-05 08:49:00,
2013-02-05 03:54:00,-11.2,-15.9,29.98,West,272,0.0,0.0,79,0.00,SKC,OVC,0.00,WeatherDisplay:10.37,2013-02-05 08:54:00,
2013-02-05 03:59:00,-11.3,-16.0,29.98,West,272,0.0,0.0,79,0.00,SKC,OVC,0.00,WeatherDisplay:10.37,2013-02-05 08:59:00,
2013-02-05 04:04:00,-11.4,-16.1,29.99,West,272,0.0,0.0,79,0.00,SKC,OVC,0.00,WeatherDisplay:10.37,2013-02-05 09:04:00,
2013-02-05 04:09:00,-11.6,-16.3,29.99,West,272,0.0,0.0,79,0.00,SKC,OVC,0.00,WeatherDisplay:10.37,2013-02-05 09:09:00,
2013-02-05 04:14:00,-11.7,-16.4,29.99,West,272,0.0,0.0,79,0.00,SKC,OVC,0.00,WeatherDisplay:10.37,2013-02-05 09:14:00,
2013-02-05 04:19:00,-11.8,-16.8,29.99,West,272,0.0,0.0,78,0.00,SKC,OVC,0.00,WeatherDisplay:10.37,2013-02-05 09:19:00,
2013-02-05 04:24:00,-12.0,-16.7,30.00,West,272,0.0,0.0,79,0.00,SKC,OVC,0.00,WeatherDisplay:10.37,2013-02-05 09:24:00,
2013-02-05 04:29:00,-12.2,-16.9,29.99,West,272,0.0,1.0,79,0.00,SKC,OVC,0.00,WeatherDisplay:10.37,2013-02-05 09:29:00,
2013-02-05 04:34:00,-12.3,-17.0,29.99,West,272,0.0,1.0,79,0.00,SKC,OVC,0.00,WeatherDisplay:10.37,2013-02-05 09:34:00,
2013-02-05 04:39:00,-12.4,-17.1,29.99,West,272,0.0,0.0,79,0.00,SKC,OVC,0.00,WeatherDisplay:10.37,2013-02-05 09:39:00,
2013-02-05 04:44:00,-12.5,-17.2,29.99,West,272,0.0,0.0,79,0.00,SKC,OVC,0.00,WeatherDisplay:10.37,2013-02-05 09:44:00,
2013-02-05 04:49:00,-12.6,-17.3,30.00,West,272,0.0,0.0,79,0.00,SKC,OVC,0.00,WeatherDisplay:10.37,2013-02-05 09:49:00,
2013-02-05 04:54:00,-12.7,-17.4,30.00,West,272,0.0,0.0,79,0.00,SKC,OVC,0.00,WeatherDisplay:10.37,2013-02-05 09:54:00,
2013-02-05 04:59:00,-12.9,-17.8,30.00,West,272,0.0,1.0,78,0.00,SKC,OVC,0.00,WeatherDisplay:10.37,2013-02-05 09:59:00,
2013-02-05 05:04:00,-13.0,-17.7,30.00,NW,305,0.0,1.0,79,0.00,SKC,OVC,0.00,WeatherDisplay:10.37,2013-02-05 10:04:00,
2013-02-05 05:09:00,-13.1,-17.8,30.00,NNW,339,0.0,2.0,79,0.00,SKC,OVC,0.00,WeatherDisplay:10.37,2013-02-05 10:09:00,
2013-02-05 05:14:00,-13.2,-17.9,30.00,NNW,343,0.0,0.0,79,0.00,SKC,OVC,0.00,WeatherDisplay:10.37,2013-02-05 10:14:00,
2013-02-05 05:19:00,-13.3,-18.0,30.00,NNW,344,0.0,1.0,79,0.00,SKC,OVC,0.00,WeatherDisplay:10.37,2013-02-05 10:19:00,
2013-02-05 05:24:00,-13.5,-18.1,30.00,NNW,344,0.0,1.0,79,0.00,SKC,OVC,0.00,WeatherDisplay:10.37,2013-02-05 10:24:00,
2013-02-05 05:29:00,-13.6,-18.2,30.00,NNW,344,0.0,1.0,79,0.00,SKC,OVC,0.00,WeatherDisplay:10.37,2013-02-05 10:29:00,
2013-02-05 05:34:00,-13.7,-18.3,30.00,NNW,344,0.0,1.0,79,0.00,SKC,OVC,0.00,WeatherDisplay:10.37,2013-02-05 10:34:00,
2013-02-05 05:39:00,-13.8,-18.4,30.00,NNW,344,0.0,1.0,79,0.00,SKC,OVC,0.00,WeatherDisplay:10.37,2013-02-05 10:39:00,
2013-02-05 05:44:00,-13.9,-18.5,30.00,NNW,344,0.0,0.0,79,0.00,SKC,OVC,0.00,WeatherDisplay:10.37,2013-02-05 10:44:00,
2013-02-05 05:49:00,-14.1,-18.7,30.00,NNW,344,0.0,0.0,79,0.00,SKC,OVC,0.00,WeatherDisplay:10.37,2013-02-05 10:49:00,
2013-02-05 05:54:00,-14.2,-19.1,30.00,NNW,344,0.0,0.0,78,0.00,SKC,OVC,0.00,WeatherDisplay:10.37,2013-02-05 10:54:00,
2013-02-05 05:59:00,-14.4,-19.3,30.00,NNW,344,0.0,1.0,78,0.00,SKC,OVC,0.00,WeatherDisplay:10.37,2013-02-05 10:59:00,
2013-02-05 06:04:00,-14.5,-19.4,30.00,NNW,344,0.0,1.0,78,0.00,SKC,OVC,0.00,WeatherDisplay:10.37,2013-02-05 11:04:00,
2013-02-05 06:09:00,-14.6,-19.5,30.01,NNW,344,0.0,1.0,78,0.00,SKC,OVC,0.00,WeatherDisplay:10.37,2013-02-05 11:09:00,
2013-02-05 06:14:00,-14.7,-19.3,30.01,NNW,344,0.0,1.0,79,0.00,SKC,OVC,0.00,WeatherDisplay:10.37,2013-02-05 11:14:00,
2013-02-05 06:19:00,-14.8,-19.4,30.01,NNW,344,0.0,1.0,79,0.00,SKC,OVC,0.00,WeatherDisplay:10.37,2013-02-05 11:19:00,
2013-02-05 06:24:00,-14.9,-19.5,30.01,NNW,344,0.0,1.0,79,0.00,SKC,OVC,0.00,WeatherDisplay:10.37,2013-02-05 11:24:00,
2013-02-05 06:29:00,-15.0,-19.6,30.01,NNW,344,0.0,1.0,79,0.00,SKC,OVC,0.00,WeatherDisplay:10.37,2013-02-05 11:29:00,
2013-02-05 06:34:00,-15.0,-19.6,30.01,NNW,344,0.0,1.0,79,0.00,SKC,OVC,0.00,WeatherDisplay:10.37,2013-02-05 11:34:00,
2013-02-05 06:39:00,-15.1,-19.7,30.02,NNW,344,0.0,0.0,79,0.00,SKC,OVC,0.00,WeatherDisplay:10.37,2013-02-05 11:39:00,
2013-02-05 06:44:00,-15.2,-19.8,30.02,NNW,344,0.0,1.0,79,0.00,SKC,OVC,0.00,WeatherDisplay:10.37,2013-02-05 11:44:00,
2013-02-05 06:49:00,-15.2,-19.8,30.02,NNW,344,0.0,1.0,79,0.00,SKC,OVC,0.00,WeatherDisplay:10.37,2013-02-05 11:49:00,
2013-02-05 06:54:00,-15.3,-19.9,30.02,NNW,344,0.0,0.0,79,0.00,SKC,OVC,0.00,WeatherDisplay:10.37,2013-02-05 11:54:00,
2013-02-05 06:59:00,-15.4,-20.2,30.02,NNW,344,0.0,0.0,78,0.00,SKC,OVC,0.00,WeatherDisplay:10.37,2013-02-05 11:59:00,
2013-02-05 07:04:00,-15.4,-20.3,30.02,NNW,344,0.0,0.0,78,0.00,SKC,OVC,0.00,WeatherDisplay:10.37,2013-02-05 12:04:00,
2013-02-05 07:09:00,-15.5,-20.3,30.02,NNW,344,0.0,0.0,78,0.00,SKC,OVC,0.00,WeatherDisplay:10.37,2013-02-05 12:09:00,
2013-02-05 07:14:00,-15.6,-20.4,30.02,NNW,344,0.0,0.0,78,0.00,FEW,OVC,0.00,WeatherDisplay:10.37,2013-02-05 12:14:00,
2013-02-05 07:19:00,-15.7,-20.5,30.02,NNW,344,0.0,0.0,78,0.00,FEW,OVC,0.00,WeatherDisplay:10.37,2013-02-05 12:19:00,
2013-02-05 07:24:00,-15.8,-20.7,30.02,NNW,344,0.0,1.0,78,0.00,FEW,OVC,0.00,WeatherDisplay:10.37,2013-02-05 12:24:00,
2013-02-05 07:29:00,-15.9,-20.7,30.02,NNW,344,0.0,1.0,78,0.00,FEW,OVC,0.00,WeatherDisplay:10.37,2013-02-05 12:29:00,
2013-02-05 07:34:00,-16.0,-20.8,30.02,NNW,344,0.0,0.0,78,0.00,FEW,OVC,0.00,WeatherDisplay:10.37,2013-02-05 12:34:00,
2013-02-05 07:39:00,-16.0,-20.8,30.02,NNW,344,0.0,1.0,78,0.00,FEW,OVC,0.00,WeatherDisplay:10.37,2013-02-05 12:39:00,
2013-02-05 07:44:00,-16.0,-20.6,30.02,NNW,344,0.0,0.0,79,0.00,FEW,OVC,0.00,WeatherDisplay:10.37,2013-02-05 12:44:00,
2013-02-05 07:49:00,-16.0,-20.6,30.02,NNW,344,0.0,0.0,79,0.00,FEW,OVC,0.00,WeatherDisplay:10.37,2013-02-05 12:49:00,
2013-02-05 07:54:00,-15.9,-20.5,30.02,NNW,344,0.0,0.0,79,0.00,FEW,OVC,0.00,WeatherDisplay:10.37,2013-02-05 12:54:00,
2013-02-05 07:59:00,-15.8,-20.4,30.02,NNW,344,0.0,0.0,79,0.00,FEW,OVC,0.00,WeatherDisplay:10.37,2013-02-05 12:59:00,
2013-02-05 08:04:00,-15.8,-20.4,30.03,NNW,344,0.0,0.0,79,0.00,FEW,OVC,0.00,WeatherDisplay:10.37,2013-02-05 13:04:00,
2013-02-05 08:09:00,-15.7,-20.3,30.03,NNW,344,0.0,0.0,79,0.00,FEW,OVC,0.00,WeatherDisplay:10.37,2013-02-05 13:09:00,
2013-02-05 08:14:00,-15.5,-19.9,30.03,NNW,344,0.0,0.0,80,0.00,FEW,OVC,0.00,WeatherDisplay:10.37,2013-02-05 13:14:00,
2013-02-05 08:19:00,-15.2,-19.3,30.02,NNW,344,0.0,0.0,81,0.00,FEW,OVC,0.00,WeatherDisplay:10.37,2013-02-05 13:19:00,
2013-02-05 08:24:00,-14.8,-18.9,30.03,NNW,344,0.0,0.0,81,0.00,FEW,OVC,0.00,WeatherDisplay:10.37,2013-02-05 13:24:00,
2013-02-05 08:29:00,-14.3,-18.2,30.03,NNW,344,0.0,1.0,82,0.00,FEW,OVC,0.00,WeatherDisplay:10.37,2013-02-05 13:29:00,
2013-02-05 08:34:00,-13.8,-17.7,30.03,NNW,344,0.0,1.0,82,0.00,FEW,OVC,0.00,WeatherDisplay:10.37,2013-02-05 13:34:00,
2013-02-05 08:39:00,-13.3,-17.0,30.03,NNW,344,0.0,0.0,83,0.00,FEW,OVC,0.00,WeatherDisplay:10.37,2013-02-05 13:39:00,
2013-02-05 08:44:00,-12.6,-16.3,30.03,NNW,344,0.0,0.0,83,0.00,FEW,OVC,0.00,WeatherDisplay:10.37,2013-02-05 13:44:00,
2013-02-05 08:49:00,-11.9,-15.4,30.03,NNW,344,0.0,0.0,84,0.00,FEW,OVC,0.00,WeatherDisplay:10.37,2013-02-05 13:49:00,
2013-02-05 08:54:00,-9.1,-12.1,30.03,NNW,344,0.0,0.0,86,0.00,FEW,OVC,0.00,WeatherDisplay:10.37,2013-02-05 13:54:00,
2013-02-05 08:59:00,-6.5,-10.1,30.03,NNW,344,0.0,0.0,84,0.00,FEW,OVC,0.00,WeatherDisplay:10.37,2013-02-05 13:59:00,
2013-02-05 09:04:00,-5.0,-9.1,30.03,NNW,344,0.0,0.0,82,0.00,FEW,OVC,0.00,WeatherDisplay:10.37,2013-02-05 14:04:00,
2013-02-05 09:09:00,-3.2,-8.1,30.04,NNW,344,0.0,0.0,79,0.00,FEW,OVC,0.00,WeatherDisplay:10.37,2013-02-05 14:09:00,
2013-02-05 09:14:00,-1.7,-7.7,30.04,NNW,344,0.0,0.0,75,0.00,FEW,OVC,0.00,WeatherDisplay:10.37,2013-02-05 14:14:00,
2013-02-05 09:19:00,-0.7,-7.0,30.04,NNW,344,0.0,0.0,74,0.00,FEW,OVC,0.00,WeatherDisplay:10.37,2013-02-05 14:19:00,
2013-02-05 09:29:00,0.7,-6.8,30.04,SW,227,1.0,2.0,70,0.00,FEW,OVC,0.00,WeatherDisplay:10.37,2013-02-05 14:29:00,
2013-02-05 09:34:00,0.9,-7.2,30.04,SW,215,0.0,1.0,68,0.00,FEW,OVC,0.00,WeatherDisplay:10.37,2013-02-05 14:34:00,
2013-02-05 09:39:00,1.6,-7.4,30.04,South,191,0.0,3.0,65,0.00,FEW,OVC,0.00,WeatherDisplay:10.37,2013-02-05 14:39:00,
2013-02-05 09:44:00,1.9,-7.1,30.03,SSW,205,0.0,5.0,65,0.00,FEW,OVC,0.00,WeatherDisplay:10.37,2013-02-05 14:44:00,
2013-02-05 09:49:00,2.2,-7.2,30.03,SW,227,2.0,4.0,64,0.00,FEW,OVC,0.00,WeatherDisplay:10.37,2013-02-05 14:49:00,
2013-02-05 09:54:00,2.5,-7.6,30.03,SW,219,1.0,4.0,62,0.00,FEW,OVC,0.00,WeatherDisplay:10.37,2013-02-05 14:54:00,
2013-02-05 09:59:00,2.7,-7.4,30.03,South,181,0.0,3.0,62,0.00,FEW,OVC,0.00,WeatherDisplay:10.37,2013-02-05 14:59:00,
2013-02-05 10:04:00,3.1,-7.3,30.03,SSE,161,0.0,3.0,61,0.00,FEW,OVC,0.00,WeatherDisplay:10.37,2013-02-05 15:04:00,
2013-02-05 10:09:00,3.5,-7.3,30.03,SSW,200,0.0,4.0,60,0.00,FEW,OVC,0.00,WeatherDisplay:10.37,2013-02-05 15:09:00,
2013-02-05 10:14:00,3.6,-7.2,30.03,SSW,199,2.0,6.0,60,0.00,FEW,OVC,0.00,WeatherDisplay:10.37,2013-02-05 15:14:00,
2013-02-05 10:19:00,3.6,-7.2,30.03,South,172,1.0,4.0,60,0.00,FEW,OVC,0.00,WeatherDisplay:10.37,2013-02-05 15:19:00,
2013-02-05 10:24:00,4.0,-6.8,30.03,South,170,1.0,5.0,60,0.00,FEW,OVC,0.00,WeatherDisplay:10.37,2013-02-05 15:24:00,
2013-02-05 10:29:00,4.1,-6.4,30.04,SSW,197,1.0,2.0,61,0.00,FEW,OVC,0.00,WeatherDisplay:10.37,2013-02-05 15:29:00,
2013-02-05 10:39:00,4.5,-6.4,30.03,South,170,0.0,3.0,60,0.00,FEW,OVC,0.00,WeatherDisplay:10.37,2013-02-05 15:39:00,
2013-02-05 10:44:00,4.7,-6.9,30.03,South,177,1.0,3.0,58,0.00,FEW,OVC,0.00,WeatherDisplay:10.37,2013-02-05 15:44:00,
2013-02-05 10:49:00,4.9,-6.7,30.04,South,187,2.0,6.0,58,0.00,FEW,OVC,0.00,WeatherDisplay:10.37,2013-02-05 15:49:00,
2013-02-05 10:54:00,4.7,-7.2,30.04,SW,229,2.0,5.0,57,0.00,FEW,OVC,0.00,WeatherDisplay:10.37,2013-02-05 15:54:00,
2013-02-05 10:59:00,5.3,-6.6,30.04,SW,219,1.0,3.0,57,0.00,FEW,OVC,0.00,WeatherDisplay:10.37,2013-02-05 15:59:00,
2013-02-05 11:09:00,6.1,-5.9,30.04,South,182,1.0,6.0,57,0.00,FEW,OVC,0.00,WeatherDisplay:10.37,2013-02-05 16:09:00,
2013-02-05 11:14:00,6.3,-5.7,30.04,SSW,196,2.0,7.0,57,0.00,SCT,OVC,0.00,WeatherDisplay:10.37,2013-02-05 16:14:00,
2013-02-05 11:19:00,6.6,-5.4,30.04,SSW,199,3.0,8.0,57,0.00,SCT,OVC,0.00,WeatherDisplay:10.37,2013-02-05 16:19:00,
2013-02-05 11:24:00,6.5,-5.5,30.04,SSW,208,5.0,10.0,57,0.00,SCT,OVC,0.00,WeatherDisplay:10.37,2013-02-05 16:24:00,
2013-02-05 11:29:00,6.6,-5.4,30.04,SW,215,3.0,10.0,57,0.00,SCT,OVC,0.00,WeatherDisplay:10.37,2013-02-05 16:29:00,
2013-02-05 11:34:00,6.9,-5.1,30.03,SSW,212,1.0,7.0,57,0.00,SCT,OVC,0.00,WeatherDisplay:10.37,2013-02-05 16:34:00,
2013-02-05 11:39:00,6.8,-5.6,30.03,SSW,208,2.0,5.0,56,0.00,SCT,OVC,0.00,WeatherDisplay:10.37,2013-02-05 16:39:00,
2013-02-05 11:44:00,7.3,-5.5,30.03,SW,218,5.0,7.0,55,0.00,SCT,OVC,0.00,WeatherDisplay:10.37,2013-02-05 16:44:00,
2013-02-05 11:49:00,7.5,-4.9,30.03,SW,223,2.0,6.0,56,0.00,SCT,OVC,0.00,WeatherDisplay:10.37,2013-02-05 16:49:00,
2013-02-05 11:54:00,7.5,-5.3,30.03,SSW,203,3.0,7.0,55,0.00,SCT,OVC,0.00,WeatherDisplay:10.37,2013-02-05 16:54:00,
2013-02-05 11:59:00,7.9,-4.6,30.02,SSW,204,2.0,5.0,56,0.00,SCT,OVC,0.00,WeatherDisplay:10.37,2013-02-05 16:59:00,
2013-02-05 12:04:00,7.8,-5.0,30.02,SSW,204,2.0,9.0,55,0.00,SCT,OVC,0.00,WeatherDisplay:10.37,2013-02-05 17:04:00,
2013-02-05 12:09:00,8.0,-4.8,30.02,SSW,194,2.0,7.0,55,0.00,SCT,OVC,0.00,WeatherDisplay:10.37,2013-02-05 17:09:00,
2013-02-05 12:14:00,8.2,-5.0,30.02,South,189,2.0,7.0,54,0.00,FEW,OVC,0.00,WeatherDisplay:10.37,2013-02-05 17:14:00,
2013-02-05 12:19:00,8.1,-4.8,30.01,SSW,207,1.0,7.0,55,0.00,FEW,OVC,0.00,WeatherDisplay:10.37,2013-02-05 17:19:00,
2013-02-05 12:24:00,8.3,-4.6,30.01,SSW,206,2.0,7.0,55,0.00,FEW,OVC,0.00,WeatherDisplay:10.37,2013-02-05 17:24:00,
2013-02-05 12:29:00,8.4,-4.9,30.01,SSW,195,0.0,5.0,54,0.00,FEW,OVC,0.00,WeatherDisplay:10.37,2013-02-05 17:29:00,
2013-02-05 12:34:00,8.2,-5.0,30.01,SW,231,1.0,10.0,54,0.00,FEW,OVC,0.00,WeatherDisplay:10.37,2013-02-05 17:34:00,
2013-02-05 12:39:00,8.5,-4.8,30.01,SW,231,2.0,5.0,54,0.00,FEW,OVC,0.00,WeatherDisplay:10.37,2013-02-05 17:39:00,
2013-02-05 12:44:00,8.8,-4.1,30.00,SSW,193,2.0,5.0,55,0.00,FEW,OVC,0.00,WeatherDisplay:10.37,2013-02-05 17:44:00,
2013-02-05 12:49:00,9.1,-3.8,30.00,South,169,1.0,5.0,55,0.00,FEW,OVC,0.00,WeatherDisplay:10.37,2013-02-05 17:49:00,
2013-02-05 12:54:00,9.6,-3.7,30.00,SW,233,2.0,7.0,54,0.00,FEW,OVC,0.00,WeatherDisplay:10.37,2013-02-05 17:54:00,
2013-02-05 12:59:00,9.3,-4.8,30.00,WSW,245,1.0,5.0,52,0.00,FEW,OVC,0.00,WeatherDisplay:10.37,2013-02-05 17:59:00,
2013-02-05 13:04:00,9.4,-4.7,30.00,WSW,240,1.0,7.0,52,0.00,FEW,OVC,0.00,WeatherDisplay:10.37,2013-02-05 18:04:00,
2013-02-05 13:09:00,9.6,-4.9,30.00,SSW,203,1.0,6.0,51,0.00,FEW,OVC,0.00,WeatherDisplay:10.37,2013-02-05 18:09:00,
2013-02-05 13:14:00,9.8,-4.7,30.00,SSW,202,2.0,7.0,51,0.00,FEW,OVC,0.00,WeatherDisplay:10.37,2013-02-05 18:14:00,
2013-02-05 13:24:00,10.2,-4.8,30.00,SSW,203,2.0,6.0,50,0.00,BKN,OVC,0.00,WeatherDisplay:10.37,2013-02-05 18:24:00,
2013-02-05 13:29:00,9.9,-5.5,30.00,SW,229,2.0,6.0,49,0.00,BKN,OVC,0.00,WeatherDisplay:10.37,2013-02-05 18:29:00,
2013-02-05 13:34:00,10.0,-5.0,30.00,SW,215,1.0,5.0,50,0.00,BKN,OVC,0.00,WeatherDisplay:10.37,2013-02-05 18:34:00,
2013-02-05 13:39:00,10.2,-4.8,30.00,SSW,202,1.0,4.0,50,0.00,BKN,OVC,0.00,WeatherDisplay:10.37,2013-02-05 18:39:00,
2013-02-05 13:44:00,10.3,-5.1,29.99,SW,215,1.0,6.0,49,0.00,BKN,OVC,0.00,WeatherDisplay:10.37,2013-02-05 18:44:00,
2013-02-05 13:49:00,10.3,-4.7,29.99,South,185,1.0,6.0,50,0.00,BKN,OVC,0.00,WeatherDisplay:10.37,2013-02-05 18:49:00,
2013-02-05 13:54:00,10.6,-4.4,29.99,South,182,1.0,6.0,50,0.00,BKN,OVC,0.00,WeatherDisplay:10.37,2013-02-05 18:54:00,
2013-02-05 13:59:00,10.5,-4.9,29.99,South,190,1.0,4.0,49,0.00,BKN,OVC,0.00,WeatherDisplay:10.37,2013-02-05 18:59:00,
2013-02-05 14:04:00,10.9,-4.6,29.99,SW,226,2.0,5.0,49,0.00,BKN,OVC,0.00,WeatherDisplay:10.37,2013-02-05 19:04:00,
2013-02-05 14:09:00,10.7,-4.7,29.98,SW,217,0.0,3.0,49,0.00,BKN,OVC,0.00,WeatherDisplay:10.37,2013-02-05 19:09:00,
2013-02-05 14:14:00,11.0,-4.0,29.98,South,191,1.0,4.0,50,0.00,BKN,OVC,0.00,WeatherDisplay:10.37,2013-02-05 19:14:00,
2013-02-05 14:19:00,11.0,-4.5,29.98,South,184,0.0,3.0,49,0.00,BKN,OVC,0.00,WeatherDisplay:10.37,2013-02-05 19:19:00,
2013-02-05 14:24:00,11.1,-4.8,29.98,South,170,0.0,4.0,48,0.00,BKN,OVC,0.00,WeatherDisplay:10.37,2013-02-05 19:24:00,
2013-02-05 14:29:00,11.1,-4.0,29.98,SSE,166,1.0,6.0,50,0.00,BKN,OVC,0.00,WeatherDisplay:10.37,2013-02-05 19:29:00,
2013-02-05 14:34:00,10.6,-5.2,29.98,South,173,0.0,5.0,48,0.00,BKN,OVC,0.00,WeatherDisplay:10.37,2013-02-05 19:34:00,
2013-02-05 14:44:00,10.7,-3.9,29.98,South,179,0.0,1.0,51,0.00,BKN,OVC,0.00,WeatherDisplay:10.37,2013-02-05 19:44:00,
2013-02-05 14:54:00,10.3,-4.7,29.98,South,182,1.0,4.0,50,0.00,BKN,OVC,0.00,WeatherDisplay:10.37,2013-02-05 19:54:00,
2013-02-05 14:59:00,10.6,-4.0,29.98,South,189,1.0,6.0,51,0.00,BKN,OVC,0.00,WeatherDisplay:10.37,2013-02-05 19:59:00,
2013-02-05 15:04:00,10.4,-4.6,29.98,SSW,201,1.0,3.0,50,0.00,BKN,OVC,0.00,WeatherDisplay:10.37,2013-02-05 20:04:00,
2013-02-05 15:14:00,10.2,-3.9,29.98,SSW,198,1.0,3.0,52,0.00,OVC,OVC,0.00,WeatherDisplay:10.37,2013-02-05 20:14:00,
2013-02-05 15:19:00,10.4,-4.2,29.97,SSW,204,0.0,5.0,51,0.00,OVC,OVC,0.00,WeatherDisplay:10.37,2013-02-05 20:19:00,
2013-02-05 15:24:00,10.4,-4.2,29.97,South,189,1.0,3.0,51,0.00,OVC,OVC,0.00,WeatherDisplay:10.37,2013-02-05 20:24:00,
2013-02-05 15:29:00,10.2,-4.4,29.97,South,187,0.0,3.0,51,0.00,OVC,OVC,0.00,WeatherDisplay:10.37,2013-02-05 20:29:00,
2013-02-05 15:34:00,10.1,-4.5,29.97,SSW,211,0.0,3.0,51,0.00,OVC,OVC,0.00,WeatherDisplay:10.37,2013-02-05 20:34:00,
2013-02-05 15:39:00,10.1,-4.1,29.97,SSW,193,1.0,4.0,52,0.00,OVC,OVC,0.00,WeatherDisplay:10.37,2013-02-05 20:39:00,
2013-02-05 15:44:00,10.4,-4.2,29.97,SSW,193,1.0,5.0,51,0.00,OVC,OVC,0.00,WeatherDisplay:10.37,2013-02-05 20:44:00,
2013-02-05 15:49:00,10.4,-3.8,29.97,SW,216,0.0,4.0,52,0.00,OVC,OVC,0.00,WeatherDisplay:10.37,2013-02-05 20:49:00,
2013-02-05 15:54:00,10.3,-3.9,29.97,SSW,205,0.0,6.0,52,0.00,OVC,OVC,0.00,WeatherDisplay:10.37,2013-02-05 20:54:00,
2013-02-05 15:59:00,10.1,-3.7,29.97,South,191,0.0,2.0,53,0.00,OVC,OVC,0.00,WeatherDisplay:10.37,2013-02-05 20:59:00,
2013-02-05 16:04:00,10.0,-3.4,29.97,SSW,207,1.0,2.0,54,0.00,OVC,OVC,0.00,WeatherDisplay:10.37,2013-02-05 21:04:00,
2013-02-05 16:09:00,9.9,-3.8,29.98,SSW,211,0.0,2.0,53,0.00,OVC,OVC,0.00,WeatherDisplay:10.37,2013-02-05 21:09:00,
2013-02-05 16:14:00,10.0,-3.4,29.97,SSW,203,0.0,1.0,54,0.00,BKN,OVC,0.00,WeatherDisplay:10.37,2013-02-05 21:14:00,
2013-02-05 16:24:00,9.8,-3.9,29.97,SSW,200,0.0,2.0,53,0.00,BKN,OVC,0.00,WeatherDisplay:10.37,2013-02-05 21:24:00,
2013-02-05 16:29:00,9.8,-3.6,29.97,SSW,195,0.0,1.0,54,0.00,BKN,OVC,0.00,WeatherDisplay:10.37,2013-02-05 21:29:00,
2013-02-05 16:34:00,9.5,-3.1,29.97,SSW,205,0.0,1.0,56,0.00,BKN,OVC,0.00,WeatherDisplay:10.37,2013-02-05 21:34:00,
2013-02-05 16:39:00,9.4,-3.2,29.97,SSW,205,0.0,1.0,56,0.00,BKN,OVC,0.00,WeatherDisplay:10.37,2013-02-05 21:39:00,
2013-02-05 16:44:00,9.3,-4.0,29.97,SSW,206,0.0,2.0,54,0.00,BKN,OVC,0.00,WeatherDisplay:10.37,2013-02-05 21:44:00,
2013-02-05 16:49:00,9.2,-4.1,29.97,SSW,209,0.0,0.0,54,0.00,BKN,OVC,0.00,WeatherDisplay:10.37,2013-02-05 21:49:00,
2013-02-05 16:54:00,9.2,-3.7,29.96,SSW,211,0.0,1.0,55,0.00,BKN,OVC,0.00,WeatherDisplay:10.37,2013-02-05 21:54:00,
2013-02-05 16:59:00,9.2,-4.1,29.96,SSW,211,0.0,0.0,54,0.00,BKN,OVC,0.00,WeatherDisplay:10.37,2013-02-05 21:59:00,
2013-02-05 17:04:00,9.2,-4.1,29.96,SSW,211,0.0,0.0,54,0.00,BKN,OVC,0.00,WeatherDisplay:10.37,2013-02-05 22:04:00,
2013-02-05 17:09:00,9.1,-3.4,29.96,SSW,211,0.0,0.0,56,0.00,BKN,OVC,0.00,WeatherDisplay:10.37,2013-02-05 22:09:00,
2013-02-05 17:14:00,8.9,-4.0,29.96,SSW,211,0.0,0.0,55,0.00,OVC,OVC,0.00,WeatherDisplay:10.37,2013-02-05 22:14:00,
2013-02-05 17:19:00,8.8,-3.4,29.95,SSW,211,0.0,0.0,57,0.00,OVC,OVC,0.00,WeatherDisplay:10.37,2013-02-05 22:19:00,
2013-02-05 17:24:00,8.6,-3.2,29.95,SSW,211,0.0,0.0,58,0.00,OVC,OVC,0.00,WeatherDisplay:10.37,2013-02-05 22:24:00,
2013-02-05 17:29:00,8.4,-3.4,29.95,SSW,211,0.0,0.0,58,0.00,OVC,OVC,0.00,WeatherDisplay:10.37,2013-02-05 22:29:00,
2013-02-05 17:34:00,8.3,-2.7,29.95,SSW,211,0.0,0.0,60,0.00,OVC,OVC,0.00,WeatherDisplay:10.37,2013-02-05 22:34:00,
2013-02-05 17:39:00,8.4,-2.7,29.95,SSW,211,0.0,0.0,60,0.00,OVC,OVC,0.00,WeatherDisplay:10.37,2013-02-05 22:39:00,
2013-02-05 17:44:00,8.4,-2.7,29.96,SSW,211,0.0,0.0,60,0.00,OVC,OVC,0.00,WeatherDisplay:10.37,2013-02-05 22:44:00,
2013-02-05 17:49:00,8.4,-2.3,29.96,SSW,211,0.0,0.0,61,0.00,OVC,OVC,0.00,WeatherDisplay:10.37,2013-02-05 22:49:00,
2013-02-05 17:54:00,8.3,-2.1,29.96,SSW,211,0.0,0.0,62,0.00,OVC,OVC,0.00,WeatherDisplay:10.37,2013-02-05 22:54:00,
2013-02-05 17:59:00,8.3,-1.7,29.96,SSW,211,0.0,0.0,63,0.00,OVC,OVC,0.00,WeatherDisplay:10.37,2013-02-05 22:59:00,
2013-02-05 18:04:00,8.2,-1.5,29.95,SSW,211,0.0,0.0,64,0.00,OVC,OVC,0.00,WeatherDisplay:10.37,2013-02-05 23:04:00,
2013-02-05 18:09:00,8.2,-1.2,29.95,SSW,211,0.0,0.0,65,0.00,OVC,OVC,0.00,WeatherDisplay:10.37,2013-02-05 23:09:00,
2013-02-05 18:14:00,8.2,-1.8,29.96,SSW,211,0.0,0.0,63,0.00,OVC,OVC,0.00,WeatherDisplay:10.37,2013-02-05 23:14:00,
2013-02-05 18:19:00,8.3,-0.7,29.96,SSW,210,0.0,0.0,66,0.00,OVC,OVC,0.00,WeatherDisplay:10.37,2013-02-05 23:19:00,
2013-02-05 18:24:00,8.3,-1.1,29.96,SSW,207,0.0,0.0,65,0.00,OVC,OVC,0.00,WeatherDisplay:10.37,2013-02-05 23:24:00,
2013-02-05 18:29:00,8.3,-2.4,29.96,SSW,205,0.0,0.0,61,0.00,OVC,OVC,0.00,WeatherDisplay:10.37,2013-02-05 23:29:00,
2013-02-05 18:34:00,8.3,-2.1,29.96,SSW,205,0.0,0.0,62,0.00,OVC,OVC,0.00,WeatherDisplay:10.37,2013-02-05 23:34:00,
2013-02-05 18:39:00,8.2,-2.5,29.96,SSW,205,0.0,0.0,61,0.00,OVC,OVC,0.00,WeatherDisplay:10.37,2013-02-05 23:39:00,
2013-02-05 18:44:00,8.2,-2.2,29.96,SSW,205,0.0,0.0,62,0.00,OVC,OVC,0.00,WeatherDisplay:10.37,2013-02-05 23:44:00,
2013-02-05 18:49:00,8.1,-1.9,29.96,SSW,205,0.0,0.0,63,0.00,OVC,OVC,0.00,WeatherDisplay:10.37,2013-02-05 23:49:00,
2013-02-05 18:54:00,8.1,-2.2,29.96,SSW,205,0.0,0.0,62,0.00,OVC,OVC,0.00,WeatherDisplay:10.37,2013-02-05 23:54:00,
2013-02-05 18:59:00,8.1,-1.2,29.96,SSW,205,0.0,0.0,65,0.00,OVC,OVC,0.00,WeatherDisplay:10.37,2013-02-05 23:59:00,
2013-02-05 19:04:00,8.1,-1.6,29.96,SSW,205,0.0,0.0,64,0.00,OVC,OVC,0.00,WeatherDisplay:10.37,2013-02-06 00:04:00,
2013-02-05 19:09:00,8.0,-1.3,29.96,SSW,205,0.0,0.0,65,0.00,OVC,OVC,0.00,WeatherDisplay:10.37,2013-02-06 00:09:00,
2013-02-05 19:14:00,8.0,-1.3,29.96,SSW,212,0.0,1.0,65,0.00,OVC,OVC,0.00,WeatherDisplay:10.37,2013-02-06 00:14:00,
2013-02-05 19:19:00,8.1,-1.3,29.95,WSW,254,0.0,1.0,65,0.00,OVC,OVC,0.00,WeatherDisplay:10.37,2013-02-06 00:19:00,
2013-02-05 19:29:00,8.2,-1.2,29.95,North,360,0.0,2.0,65,0.00,OVC,OVC,0.00,WeatherDisplay:10.37,2013-02-06 00:29:00,
2013-02-05 19:34:00,8.2,-1.2,29.95,North,360,0.0,2.0,65,0.00,OVC,OVC,0.00,WeatherDisplay:10.37,2013-02-06 00:34:00,
2013-02-05 19:39:00,8.2,-1.1,29.95,North,360,0.0,1.0,65,0.00,OVC,OVC,0.00,WeatherDisplay:10.37,2013-02-06 00:39:00,
2013-02-05 19:44:00,8.2,-0.8,29.95,North,360,0.0,1.0,66,0.00,OVC,OVC,0.00,WeatherDisplay:10.37,2013-02-06 00:44:00,
2013-02-05 19:49:00,8.2,-0.8,29.95,North,357,1.0,2.0,66,0.00,OVC,OVC,0.00,WeatherDisplay:10.37,2013-02-06 00:49:00,
2013-02-05 19:54:00,8.2,-0.5,29.95,North,355,0.0,1.0,67,0.00,OVC,OVC,0.00,WeatherDisplay:10.37,2013-02-06 00:54:00,
2013-02-05 19:59:00,8.2,-0.5,29.94,North,352,0.0,1.0,67,0.00,OVC,OVC,0.00,WeatherDisplay:10.37,2013-02-06 00:59:00,
2013-02-05 20:04:00,8.2,-0.5,29.94,North,351,0.0,1.0,67,0.00,OVC,OVC,0.00,WeatherDisplay:10.37,2013-02-06 01:04:00,
2013-02-05 20:09:00,8.2,-0.2,29.95,North,350,0.0,1.0,68,0.00,OVC,OVC,0.00,WeatherDisplay:10.37,2013-02-06 01:09:00,
2013-02-05 20:14:00,8.3,-0.1,29.94,North,352,0.0,1.0,68,0.00,OVC,OVC,0.00,WeatherDisplay:10.37,2013-02-06 01:14:00,
2013-02-05 20:19:00,8.4,0.0,29.94,NNE,19,0.0,1.0,68,0.00,OVC,OVC,0.00,WeatherDisplay:10.37,2013-02-06 01:19:00,
2013-02-05 20:24:00,8.4,0.0,29.94,North,357,0.0,1.0,68,0.00,OVC,OVC,0.00,WeatherDisplay:10.37,2013-02-06 01:24:00,
2013-02-05 20:29:00,8.4,0.3,29.94,NNW,343,0.0,1.0,69,0.00,OVC,OVC,0.00,WeatherDisplay:10.37,2013-02-06 01:29:00,
2013-02-05 20:34:00,8.4,0.9,29.94,NW,324,0.0,1.0,71,0.00,OVC,OVC,0.00,WeatherDisplay:10.37,2013-02-06 01:34:00,
2013-02-05 20:39:00,8.4,1.5,29.94,NNW,338,0.0,1.0,73,0.00,OVC,OVC,0.00,WeatherDisplay:10.37,2013-02-06 01:39:00,
2013-02-05 20:44:00,8.3,1.7,29.94,NNW,345,0.0,2.0,74,0.00,OVC,OVC,0.00,WeatherDisplay:10.37,2013-02-06 01:44:00,
2013-02-05 20:49:00,8.3,2.0,29.94,NNW,342,0.0,2.0,75,0.00,OVC,OVC,0.00,WeatherDisplay:10.37,2013-02-06 01:49:00,
2013-02-05 20:54:00,8.3,2.3,29.94,NNW,338,0.0,0.0,76,0.00,OVC,OVC,0.00,WeatherDisplay:10.37,2013-02-06 01:54:00,
2013-02-05 20:59:00,8.2,2.5,29.94,NNW,338,0.0,0.0,77,0.00,OVC,OVC,0.00,WeatherDisplay:10.37,2013-02-06 01:59:00,
2013-02-05 21:04:00,8.1,2.7,29.94,NNW,338,0.0,1.0,78,0.00,OVC,OVC,0.00,WeatherDisplay:10.37,2013-02-06 02:04:00,
2013-02-05 21:09:00,8.1,2.9,29.94,NNW,338,0.0,0.0,79,0.00,OVC,OVC,0.00,WeatherDisplay:10.37,2013-02-06 02:09:00,
2013-02-05 21:14:00,7.9,3.0,29.94,NNW,338,0.0,0.0,80,0.00,-SN,OVC,0.00,WeatherDisplay:10.37,2013-02-06 02:14:00,
2013-02-05 21:19:00,7.8,3.2,29.94,NNW,338,0.0,1.0,81,0.00,-SN,OVC,0.00,WeatherDisplay:10.37,2013-02-06 02:19:00,
2013-02-05 21:24:00,7.8,3.2,29.94,NNW,338,0.0,1.0,81,0.00,-SN,OVC,0.00,WeatherDisplay:10.37,2013-02-06 02:24:00,
2013-02-05 21:29:00,7.8,3.1,29.93,NNW,338,0.0,0.0,81,0.00,-SN,OVC,0.00,WeatherDisplay:10.37,2013-02-06 02:29:00,
2013-02-05 21:34:00,7.7,3.4,29.93,NNW,338,0.0,1.0,82,0.00,-SN,OVC,0.00,WeatherDisplay:10.37,2013-02-06 02:34:00,
2013-02-05 21:39:00,7.7,3.4,29.93,NNW,338,0.0,0.0,82,0.00,-SN,OVC,0.00,WeatherDisplay:10.37,2013-02-06 02:39:00,
2013-02-05 21:44:00,7.6,3.2,29.93,NNW,338,0.0,0.0,82,0.00,-SN,OVC,0.00,WeatherDisplay:10.37,2013-02-06 02:44:00,
2013-02-05 21:49:00,7.5,3.4,29.93,NNW,338,0.0,0.0,83,0.00,-SN,OVC,0.00,WeatherDisplay:10.37,2013-02-06 02:49:00,
2013-02-05 21:54:00,7.4,3.3,29.93,NNW,338,0.0,0.0,83,0.00,-SN,OVC,0.00,WeatherDisplay:10.37,2013-02-06 02:54:00,
2013-02-05 21:59:00,7.2,3.1,29.93,NNW,338,0.0,0.0,83,0.00,-SN,OVC,0.00,WeatherDisplay:10.37,2013-02-06 02:59:00,
2013-02-05 22:04:00,7.0,3.1,29.93,NNW,338,0.0,0.0,84,0.00,-SN,OVC,0.00,WeatherDisplay:10.37,2013-02-06 03:04:00,
2013-02-05 22:09:00,6.7,2.9,29.93,NNW,338,0.0,0.0,84,0.00,-SN,OVC,0.00,WeatherDisplay:10.37,2013-02-06 03:09:00,
2013-02-05 22:14:00,6.6,2.8,29.93,NNW,338,0.0,1.0,84,0.00,-SN,OVC,0.00,WeatherDisplay:10.37,2013-02-06 03:14:00,
2013-02-05 22:19:00,6.6,3.0,29.92,NNW,338,0.0,0.0,85,0.00,-SN,OVC,0.00,WeatherDisplay:10.37,2013-02-06 03:19:00,
2013-02-05 22:24:00,6.6,3.0,29.92,NNW,338,0.0,0.0,85,0.00,-SN,OVC,0.00,WeatherDisplay:10.37,2013-02-06 03:24:00,
2013-02-05 22:34:00,6.4,2.9,29.91,NNW,338,0.0,0.0,85,0.00,-SN,OVC,0.00,WeatherDisplay:10.37,2013-02-06 03:34:00,
2013-02-05 22:39:00,6.4,2.9,29.91,NNW,338,0.0,0.0,85,0.00,-SN,OVC,0.00,WeatherDisplay:10.37,2013-02-06 03:39:00,
2013-02-05 22:44:00,6.3,2.7,29.91,NNW,338,0.0,0.0,85,0.00,-SN,OVC,0.00,WeatherDisplay:10.37,2013-02-06 03:44:00,
2013-02-05 22:49:00,6.2,2.7,29.91,NNW,338,0.0,0.0,85,0.00,-SN,OVC,0.00,WeatherDisplay:10.37,2013-02-06 03:49:00,
2013-02-05 22:54:00,6.3,2.8,29.91,NNW,338,0.0,0.0,85,0.00,-SN,OVC,0.00,WeatherDisplay:10.37,2013-02-06 03:54:00,
2013-02-05 22:59:00,6.4,2.9,29.92,NNW,338,0.0,2.0,85,0.00,-SN,OVC,0.00,WeatherDisplay:10.37,2013-02-06 03:59:00,
2013-02-05 23:04:00,6.7,3.1,29.91,NNW,341,0.0,1.0,85,0.00,-SN,OVC,0.00,WeatherDisplay:10.37,2013-02-06 04:04:00,
2013-02-05 23:09:00,6.8,3.2,29.91,North,1,0.0,2.0,85,0.00,-SN,OVC,0.00,WeatherDisplay:10.37,2013-02-06 04:09:00,
2013-02-05 23:14:00,6.8,3.2,29.91,North,360,0.0,0.0,85,0.00,-SN,OVC,0.00,WeatherDisplay:10.37,2013-02-06 04:14:00,
2013-02-05 23:19:00,6.9,3.3,29.91,North,358,0.0,0.0,85,0.00,-SN,OVC,0.00,WeatherDisplay:10.37,2013-02-06 04:19:00,
2013-02-05 23:24:00,7.0,3.2,29.91,North,355,0.0,0.0,84,0.00,-SN,OVC,0.00,WeatherDisplay:10.37,2013-02-06 04:24:00,
2013-02-05 23:29:00,7.0,3.4,29.90,North,355,0.0,0.0,85,0.00,-SN,OVC,0.00,WeatherDisplay:10.37,2013-02-06 04:29:00,
2013-02-05 23:34:00,7.0,3.5,29.91,North,355,0.0,0.0,85,0.00,-SN,OVC,0.00,WeatherDisplay:10.37,2013-02-06 04:34:00,
2013-02-05 23:39:00,7.1,3.5,29.91,North,355,0.0,0.0,85,0.00,-SN,OVC,0.00,WeatherDisplay:10.37,2013-02-06 04:39:00,
2013-02-05 23:44:00,7.2,3.6,29.91,North,355,0.0,0.0,85,0.00,-SN,OVC,0.00,WeatherDisplay:10.37,2013-02-06 04:44:00,
2013-02-05 23:49:00,7.3,3.7,29.91,North,355,0.0,0.0,85,0.00,-SN,OVC,0.00,WeatherDisplay:10.37,2013-02-06 04:49:00,
2013-02-05 23:54:00,7.3,3.5,29.91,North,355,0.0,1.0,84,0.00,-SN,OVC,0.00,WeatherDisplay:10.37,2013-02-06 04:54:00,